[[{"header":{"parameterUnit":"m.s-1","parameterCategory":1,"la1":30.2991,"la2":30.254,"lo1":-89.0895,"lo2":-89.0444,"dy":0.0017,"dx":0.0017,"nx":28,"ny":28,"refTime":"2025-01-13T03:00:00:Z","depth":0,"parameterNumber":2,"parameterNumberName":"U-component_of_WINDS"},"data":[0,0,0,0,0,0,0,0,0,0,0,0,0,0,0,0,0,0,0,0,0,0,0,0,0,0,0,0,0,0,0,0,0,0,0,0,0,0,0,0,0,0,0,0,0,0,0,0,0,0,0,0,0,0,0,0,0,0,-4.6323,-4.6325,0,-4.6471,-4.6473,-4.6474,-4.637,-4.6365,-4.636,-4.6356,-4.6513,-4.6521,-4.6529,0,0,0,0,0,0,0,0,0,0,0,0,0,-4.5956,-4.5963,-4.6323,-4.6325,-4.6327,-4.6471,-4.6473,-4.6475,-4.6371,-4.6365,-4.6359,-4.6354,-4.651,-4.652,-4.653,0,0,0,0,0,0,0,0,0,0,0,0,0,-4.6111,-4.5965,-4.6323,-4.6292,-4.6291,-4.647,-4.6473,-4.6475,-4.6372,-4.6365,-4.6358,-4.6351,-4.6506,-4.6519,-4.6531,-4.6751,0,0,-4.6571,-4.6576,0,0,0,0,0,0,0,0,-4.6102,-4.6124,-4.6295,-4.6295,-4.6293,-4.6395,-4.64,-4.6568,-4.6374,-4.6341,-4.6356,-4.6348,-4.6479,-4.6494,-4.6537,-4.6758,-4.6765,-4.6572,-4.6579,-4.6585,-4.6589,0,0,0,0,0,0,0,-4.6091,-4.6117,-4.6382,-4.6298,-4.6297,-4.6272,-4.6287,-4.6432,-4.6448,-4.6344,-4.6336,-4.6355,-4.6478,-4.6525,-4.654,-4.6767,-4.6571,-4.6583,-4.6591,-4.6596,-4.7176,-4.7183,0,0,0,0,0,0,-4.6083,-4.6109,-4.6377,-4.6386,-4.6178,-4.6285,-4.6301,-4.6369,-4.6446,-4.6451,-4.6361,-4.635,-4.6507,-4.6525,-4.6545,-4.6808,-4.6585,-4.6597,-4.6604,-4.7168,-4.7178,-4.7186,0,0,0,0,0,0,-4.6075,-4.6108,-4.6371,-4.6246,-4.6277,-4.6298,-4.6377,-4.6376,-4.6423,-4.6459,-4.6462,-4.6406,-4.6502,-4.6527,-4.67,-4.6812,-4.6603,-4.6614,-4.7159,-4.7171,-4.7182,-4.7334,0,0,0,0,0,0,-4.6065,-4.6106,-4.6188,-4.6248,-4.6284,-4.6523,-4.6383,-4.6384,-4.6445,-4.6432,-4.6502,-4.6507,-4.6498,-4.6682,-4.6713,-4.6825,-4.6624,-4.7149,-4.7164,-4.7178,-4.7319,-4.7349,-4.7375,0,0,0,0,0,-4.6052,-4.6226,-4.6193,-4.6226,-4.6388,-4.6529,-4.655,-4.6535,-4.6454,-4.6538,-4.6561,-4.6505,-4.6794,-4.67,-4.6735,-4.6853,-4.7142,-4.716,-4.7177,-4.7307,-4.7344,-4.7375,0,0,0,0,0,0,-4.6181,-4.6234,-4.6197,-4.6395,-4.6459,-4.6511,-4.6617,-4.6574,-4.6663,-4.6647,-4.6626,-4.6643,-4.6824,-4.6855,-4.675,-4.7069,-4.6955,-4.6981,-4.7042,-4.7078,-4.7105,-4.7095,-4.6635,0,0,0,0,0,-4.6232,-4.6341,-4.6381,-4.6553,-4.6586,-4.6596,-4.6657,-4.664,-4.6705,-4.6732,-4.6767,-4.6834,-4.694,-4.701,-4.7109,-4.7322,-4.7337,-4.7421,-4.7449,-4.7471,-4.7494,-4.761,-4.7648,-4.7243,-4.7243,-4.7243,0,0,-4.6339,-4.6381,-4.6452,-4.6579,-4.6626,-4.6741,-4.662,-4.6746,-4.6832,-4.6751,-4.6917,-4.6945,-4.7018,-4.7213,-4.73,-4.7244,-4.7609,-4.7494,-4.7512,-4.7522,-4.7632,-4.767,-4.7704,-4.7255,-4.7253,-4.7251,0,0,-4.6593,-4.6636,-4.6783,-4.6832,-4.6904,-4.6909,-4.6945,-4.7004,-4.702,-4.7184,-4.7127,-4.7229,-4.7411,-4.7466,-4.7517,-4.7792,-4.7744,-4.7825,-4.7972,-4.8085,-4.8117,-4.8145,-4.8245,-4.828,-4.7847,-4.7847,-4.7847,0,-4.6719,-4.6888,-4.6865,-4.6996,-4.7054,-4.6984,-4.7134,-4.7183,-4.7285,-4.7328,-4.7263,-4.749,-4.7534,-4.7741,-4.7808,-4.7851,-4.7892,-4.7817,-4.8114,-4.8142,-4.8168,-4.8263,-4.83,-4.7856,-4.7855,-4.7854,-4.7853,0,-4.7038,-4.7156,-4.7267,-4.7365,-4.7435,-4.7575,-4.7575,-4.7649,-4.7626,-4.7639,-4.7808,-4.7858,-4.7967,-4.8014,-4.7993,-4.8218,-4.8181,-4.8116,-4.8002,-4.8217,-4.8305,-4.8341,-4.787,-4.7867,-4.7864,-4.7861,0,0,-4.738,-4.7461,-4.7503,-4.7546,-4.762,-4.7712,-4.7849,-4.7953,-4.8018,-4.809,-4.8205,-4.836,-4.83,-4.8359,-4.8343,-4.8442,-4.8658,-4.8365,-4.8366,-4.8419,-4.8911,-4.896,-4.9003,-4.8625,-4.8632,-4.8638,-4.8905,0,-4.7639,-4.7876,-4.7859,-4.8083,-4.8193,-4.8128,-4.8247,-4.8306,-4.8322,-4.8418,-4.8435,-4.8546,-4.8458,-4.8493,-4.8588,-4.8611,-4.8757,-4.8592,-4.8735,-4.874,-4.872,-4.9048,-4.9102,-4.9351,-4.8939,-4.8945,-4.8949,0,-4.7973,-4.8055,-4.829,-4.8346,-4.8392,-4.8499,-4.8593,-4.8686,-4.8752,-4.8756,-4.8821,-4.8789,-4.8928,-4.8809,-4.9002,-4.8891,-4.8948,-4.8968,-4.8978,-4.8992,-4.8859,-4.9073,-4.9431,-4.9469,-4.9003,-4.8999,-4.8995,0,-4.82,-4.8369,-4.8531,-4.857,-4.864,-4.8718,-4.8751,-4.8809,-4.8873,-4.8956,-4.8997,-4.9096,-4.915,-4.9228,-4.9223,-4.9137,-4.942,-4.93,-4.9429,-4.943,-4.9494,-4.949,-4.9867,-4.9528,-4.9528,-4.9527,-4.9526,0,-4.8492,-4.8639,-4.8634,-4.8734,-4.8897,-4.8876,-4.9038,-4.9063,-4.9115,-4.922,-4.917,-4.927,-4.9257,-4.9358,-4.9355,-4.9517,-4.9541,-4.955,-4.9548,-4.9556,-4.9555,-4.9594,-4.9577,-4.9537,-4.9535,-4.9533,-4.9531,0,-4.8774,-4.8776,-4.8949,-4.9001,-4.9017,-4.9135,-4.9179,-4.9275,-4.9285,-4.9419,-4.9449,-4.9467,-4.9583,-4.9585,-4.9719,-4.9717,-4.9914,-4.9891,-4.9892,-4.9888,-5.0017,-5.0006,-5.0434,-5.049,-5.0113,-5.0117,-5.012,0,-4.8961,-4.9072,-4.9135,-4.9201,-4.9238,-4.9345,-4.9409,-4.9393,-4.9462,-4.9545,-4.9631,-4.9742,-4.983,-5.0019,-5.0045,-5.0147,-5.0127,-5.027,-5.0142,-5.0147,-5.0131,-5.0125,-5.0137,-5.0296,-5.03,-5.0304,-5.0306,0,-4.9293,-4.9289,-4.9382,-4.9477,-4.9555,-4.9629,-4.9697,-4.9754,-4.9746,-4.9827,-4.9944,-5.0012,-5.0147,-5.0259,-5.0357,-5.0393,-5.035,-5.0346,-5.0381,-5.0391,-5.0387,-5.0393,-4.9961,-5.0337,-5.0334,-5.0331,-5.033,-5.0329,-4.9535,-4.963,-4.9689,-4.9795,-4.9845,-4.991,-5.0002,-5.0023,-5.012,-5.0227,-5.0212,-5.0343,-5.0406,-5.0534,-5.0578,-5.0681,-5.0632,-5.0683,-5.0696,-5.071,-5.0724,-5.0369,-5.0699,-5.0698,-5.0697,-5.0697,-5.0696,0,-4.9865,-4.9899,-4.9997,-5.0094,-5.0178,-5.0126,-5.0199,-5.0274,-5.0389,-5.045,-5.0537,-5.0672,-5.078,-5.0813,-5.0918,-5.0994,-5.0977,-5.1022,-5.1018,-5.1027,-5.0762,-5.0721,-5.1035,-5.1035,-5.1034,-5.1034,-5.1034,-5.1034,-5.0047,-5.0207,-5.0209,-5.0393,-5.0426,-5.0553,-5.0599,-5.0659,-5.0708,-5.086,-5.0949,-5.0969,-5.102,-5.1128,-5.1225,-5.1232,-5.1273,-5.1327,-5.1327,-5.1079,-5.1045,-5.1013,-5.0975,-5.1336,-5.1337,-5.1583,-5.1586,-5.1587]},{"header":{"parameterUnit":"m.s-1","parameterCategory":1,"la1":30.2991,"la2":30.254,"lo1":-89.0895,"lo2":-89.0444,"dy":0.0017,"dx":0.0017,"nx":28,"ny":28,"refTime":"2025-01-13T03:00:00:Z","depth":0,"parameterNumber":3,"parameterNumberName":"V-component_of_WINDS"},"data":[0,0,0,0,0,0,0,0,0,0,0,0,0,0,0,0,0,0,0,0,0,0,0,0,0,0,0,0,0,0,0,0,0,0,0,0,0,0,0,0,0,0,0,0,0,0,0,0,0,0,0,0,0,0,0,0,0,0,-2.7414,-2.7413,0,-2.7303,-2.7302,-2.7301,-2.7207,-2.7205,-2.7204,-2.7203,-2.7085,-2.7083,-2.7081,0,0,0,0,0,0,0,0,0,0,0,0,0,-2.7539,-2.7538,-2.7415,-2.7413,-2.7412,-2.7304,-2.7302,-2.73,-2.7207,-2.7205,-2.7204,-2.7203,-2.7086,-2.7084,-2.7081,0,0,0,0,0,0,0,0,0,0,0,0,0,-2.7462,-2.7537,-2.7415,-2.7352,-2.7345,-2.7304,-2.7302,-2.73,-2.7207,-2.7205,-2.7204,-2.7202,-2.7087,-2.7084,-2.7081,-2.7091,0,0,-2.7071,-2.7069,0,0,0,0,0,0,0,0,-2.7467,-2.7458,-2.7363,-2.7356,-2.7349,-2.7267,-2.7303,-2.723,-2.7207,-2.7259,-2.7203,-2.7202,-2.7147,-2.7139,-2.7121,-2.7086,-2.708,-2.707,-2.7068,-2.7067,-2.7066,0,0,0,0,0,0,0,-2.7472,-2.7462,-2.737,-2.7361,-2.7353,-2.7327,-2.7315,-2.7288,-2.7213,-2.7255,-2.7248,-2.7236,-2.7143,-2.7124,-2.7118,-2.7079,-2.707,-2.7067,-2.7065,-2.7064,-2.7042,-2.7043,0,0,0,0,0,0,-2.7488,-2.7467,-2.7374,-2.7367,-2.7405,-2.7326,-2.7312,-2.7295,-2.7213,-2.7199,-2.7237,-2.7232,-2.7131,-2.7121,-2.7113,-2.7117,-2.7067,-2.7064,-2.7062,-2.704,-2.7042,-2.7043,0,0,0,0,0,0,-2.7491,-2.7481,-2.7378,-2.7415,-2.74,-2.7326,-2.7307,-2.7294,-2.7275,-2.72,-2.7186,-2.7233,-2.7129,-2.7118,-2.7096,-2.7112,-2.7062,-2.7059,-2.7039,-2.7041,-2.7043,-2.7127,0,0,0,0,0,0,-2.7495,-2.7482,-2.7487,-2.7416,-2.7399,-2.7366,-2.7308,-2.7292,-2.727,-2.7262,-2.7192,-2.7179,-2.7127,-2.7102,-2.7093,-2.7106,-2.7057,-2.7037,-2.704,-2.7042,-2.7123,-2.7132,-2.714,0,0,0,0,0,-2.75,-2.7515,-2.7488,-2.7477,-2.7403,-2.7367,-2.7357,-2.7298,-2.7272,-2.7275,-2.7226,-2.7181,-2.7112,-2.7101,-2.709,-2.7102,-2.7036,-2.7039,-2.7042,-2.7119,-2.713,-2.7139,0,0,0,0,0,0,-2.759,-2.7505,-2.7474,-2.7467,-2.7425,-2.7351,-2.7354,-2.7313,-2.7276,-2.727,-2.7198,-2.7182,-2.7169,-2.7133,-2.7122,-2.7106,-2.7067,-2.7069,-2.713,-2.714,-2.7148,-2.7156,-2.7054,0,0,0,0,0,-2.7609,-2.7588,-2.7515,-2.7516,-2.7496,-2.7429,-2.7411,-2.7369,-2.7322,-2.7304,-2.7253,-2.7208,-2.7175,-2.7156,-2.7122,-2.7117,-2.7098,-2.712,-2.7129,-2.7136,-2.7137,-2.7128,-2.7136,-2.7054,-2.7053,-2.7053,0,0,-2.7648,-2.7599,-2.759,-2.7532,-2.7495,-2.7473,-2.7414,-2.7394,-2.7376,-2.73,-2.7277,-2.7238,-2.7182,-2.7169,-2.716,-2.7139,-2.7156,-2.714,-2.7146,-2.7143,-2.7132,-2.714,-2.7147,-2.7056,-2.7055,-2.7055,0,0,-2.7707,-2.767,-2.7665,-2.7628,-2.7572,-2.7527,-2.7526,-2.7458,-2.743,-2.7405,-2.7347,-2.7323,-2.727,-2.7232,-2.7205,-2.7247,-2.7203,-2.7238,-2.7282,-2.7274,-2.7281,-2.7286,-2.7298,-2.7304,-2.724,-2.724,-2.724,0,-2.7762,-2.7728,-2.7667,-2.765,-2.7624,-2.7555,-2.7548,-2.7515,-2.7451,-2.7434,-2.7411,-2.7341,-2.7299,-2.7273,-2.7283,-2.7265,-2.7259,-2.7246,-2.7285,-2.729,-2.7294,-2.7305,-2.731,-2.7245,-2.7244,-2.7244,-2.7243,0,-2.7797,-2.7774,-2.7777,-2.7717,-2.7692,-2.768,-2.7615,-2.7596,-2.7556,-2.7513,-2.7487,-2.7433,-2.7386,-2.7377,-2.7338,-2.7345,-2.7333,-2.7299,-2.7259,-2.7307,-2.7316,-2.732,-2.7251,-2.725,-2.7248,-2.7247,0,0,-2.791,-2.7815,-2.7817,-2.7788,-2.772,-2.77,-2.7684,-2.7638,-2.7623,-2.758,-2.7562,-2.7517,-2.7484,-2.7455,-2.741,-2.7404,-2.7436,-2.7369,-2.7367,-2.7381,-2.7437,-2.7462,-2.7468,-2.7407,-2.7408,-2.7408,-2.7441,0,-2.7956,-2.7925,-2.7868,-2.7853,-2.7829,-2.7762,-2.7747,-2.7702,-2.766,-2.7632,-2.7585,-2.7553,-2.7514,-2.7495,-2.7486,-2.7435,-2.7446,-2.7432,-2.7387,-2.7386,-2.7401,-2.7473,-2.7499,-2.7533,-2.7444,-2.7445,-2.7445,0,-2.8007,-2.7968,-2.7952,-2.7883,-2.7871,-2.7859,-2.7811,-2.7786,-2.7733,-2.7702,-2.7668,-2.7619,-2.7595,-2.7559,-2.7523,-2.7514,-2.7492,-2.7464,-2.7464,-2.7456,-2.7418,-2.7464,-2.7542,-2.7547,-2.745,-2.745,-2.7449,0,-2.8087,-2.8032,-2.8013,-2.7991,-2.7911,-2.7904,-2.787,-2.7815,-2.7791,-2.7748,-2.7731,-2.7686,-2.7661,-2.7626,-2.7565,-2.7545,-2.7534,-2.7494,-2.7505,-2.7507,-2.7505,-2.7506,-2.7578,-2.7495,-2.7495,-2.7495,-2.7495,0,-2.8144,-2.8136,-2.8048,-2.8037,-2.8024,-2.7958,-2.7947,-2.7906,-2.7858,-2.7835,-2.7775,-2.7754,-2.7676,-2.7646,-2.7598,-2.7573,-2.7562,-2.7535,-2.7522,-2.7539,-2.7542,-2.7523,-2.7518,-2.7496,-2.7496,-2.7495,-2.7495,0,-2.8232,-2.8174,-2.8149,-2.8075,-2.8056,-2.805,-2.7986,-2.7971,-2.7925,-2.7897,-2.7886,-2.7814,-2.7774,-2.771,-2.7652,-2.762,-2.7603,-2.7582,-2.7621,-2.7613,-2.7627,-2.7625,-2.7688,-2.7691,-2.7608,-2.7609,-2.761,0,-2.8271,-2.8263,-2.8189,-2.817,-2.8138,-2.8109,-2.8083,-2.8017,-2.7992,-2.793,-2.7921,-2.7878,-2.7839,-2.7779,-2.7719,-2.7673,-2.765,-2.7675,-2.7642,-2.7659,-2.7647,-2.7647,-2.7644,-2.7682,-2.7683,-2.7684,-2.7685,0,-2.8346,-2.8317,-2.8284,-2.8239,-2.8211,-2.8173,-2.8131,-2.8118,-2.8042,-2.8017,-2.7977,-2.7947,-2.7887,-2.7843,-2.7788,-2.775,-2.7704,-2.7696,-2.7695,-2.7712,-2.7734,-2.7719,-2.7639,-2.7694,-2.7693,-2.7693,-2.7692,-2.7692,-2.8408,-2.8397,-2.8342,-2.8306,-2.8268,-2.823,-2.8211,-2.8163,-2.8129,-2.8076,-2.8038,-2.8,-2.7943,-2.7865,-2.7829,-2.7796,-2.7776,-2.7776,-2.7776,-2.7776,-2.7782,-2.7741,-2.7786,-2.7786,-2.7785,-2.7785,-2.7785,0,-2.8478,-2.8439,-2.8407,-2.835,-2.8321,-2.8282,-2.8233,-2.821,-2.8178,-2.813,-2.8093,-2.8045,-2.8001,-2.7938,-2.7888,-2.7874,-2.7851,-2.7863,-2.7862,-2.7853,-2.7804,-2.7808,-2.7882,-2.7882,-2.7882,-2.7882,-2.7882,-2.7882,-2.851,-2.8488,-2.8452,-2.8409,-2.8369,-2.8332,-2.8307,-2.8271,-2.8232,-2.8181,-2.8145,-2.8105,-2.8049,-2.7995,-2.7952,-2.7934,-2.7917,-2.7936,-2.7911,-2.7866,-2.7857,-2.7849,-2.7852,-2.7933,-2.7933,-2.7962,-2.7963,-2.7963]}]]